Simultaneous Nadir Overpasses (SNOs) Predictions

Prediction of SNOs between NPP and PACE Satellite Orbit:

Table of predicted SNOs for the next 14.0 days since TLE Epoch: 6/8/2024
Index Date (NPP) Time (NPP) Lat,Lon (NPP) SZA (NPP ) Date (PACE) Time (PACE) Lat,Lon (PACE) SZA (PACE ) Distance(km) Time Diff (sec)
1 06/08/2024 21:11:26 79.94,-175.91 59.23 06/08/2024 21:11:29 79.94,-175.88 59.23 0.58 3
2 06/11/2024 01:37:46 79.88, 118.00 58.99 06/11/2024 01:37:34 79.88, 118.03 58.99 0.69 12
3 06/13/2024 05:13:27 -80.02,-117.23 120.88 06/13/2024 05:14:34 -80.01,-117.26 120.91 0.72 67
4 06/13/2024 06:04:05 79.81, 52.15 58.73 06/13/2024 06:03:38 79.81, 52.02 58.76 2.74 27
5 06/15/2024 09:39:48 -80.00, 176.32 120.99 06/15/2024 09:40:39 -80.01, 176.28 121.01 0.83 51
6 06/15/2024 10:30:25 79.76, -14.03 58.57 06/15/2024 10:29:42 79.77, -14.19 58.61 3.16 43
7 06/17/2024 14:06:09 -80.00, 109.81 121.06 06/17/2024 14:06:43 -79.99, 109.91 121.09 1.92 34
8 06/17/2024 14:56:47 79.78, -80.83 58.56 06/17/2024 14:55:47 79.79, -80.85 58.59 0.67 60
9 06/19/2024 18:32:29 -79.96, 43.56 121.14 06/19/2024 18:32:46 -79.96, 43.62 121.16 1.13 17



Historial Predications of SNOs between NPP and PACE
